W2JV-2 Weather Reports


Display with metric or nautical units.
time (UTC)temp
F
wind
direction
speed
MPH
gust
MPH
rain 1hr
in
rain 24hr
in
rain mn
in
humidity
%
barometer
mb
20260507184002 64 42 2.0 3.0 0.00 0.38 0.29 37 1007.9
20260507183502 64 342 2.0 5.0 0.00 0.38 0.29 33 1008.1
20260507182503 64 289 2.0 5.0 0.00 0.38 0.29 38 1008.1
20260507182003 63 284 2.0 5.0 0.00 0.38 0.29 39 1008.3
20260507181502 62 4 1.0 3.0 0.00 0.38 0.29 39 1008.3
20260507181002 62 22 2.0 5.0 0.00 0.38 0.29 38 1008.4
20260507180502 62 255 2.0 5.0 0.00 0.38 0.29 39 1008.5
20260507180002 62 347 2.0 9.0 0.00 0.38 0.29 42 1008.5
20260507175502 62 151 3.0 5.0 0.00 0.38 0.29 35 1008.5
20260507174503 62 312 2.0 6.0 0.00 0.38 0.29 41 1008.5
20260507174003 62 329 1.0 3.0 0.00 0.38 0.29 42 1008.6
20260507173503 62 311 2.0 9.0 0.00 0.38 0.29 40 1008.7
20260507173002 62 337 1.0 5.0 0.00 0.38 0.29 42 1008.8
20260507172502 62 354 1.0 5.0 0.00 0.38 0.29 43 1008.9
20260507171503 61 333 3.0 8.0 0.00 0.38 0.29 43 1009.0
20260507170503 61 307 3.0 6.0 0.00 0.38 0.29 40 1008.9
20260507170003 61 318 2.0 5.0 0.00 0.38 0.29 46 1009.0
20260507165503 61 8 1.0 5.0 0.00 0.38 0.29 51 1009.1
20260507165004 61 231 2.0 3.0 0.00 0.38 0.29 47 1009.2
20260507164502 61 9 3.0 6.0 0.00 0.38 0.29 49 1009.2
20260507163003 61 106 3.0 6.0 0.00 0.38 0.29 51 1009.5
20260507162503 61 260 3.0 5.0 0.00 0.38 0.29 60 1009.5
20260507162002 60 276 1.0 3.0 0.00 0.38 0.29 58 1009.5
20260507161502 60 1 2.0 5.0 0.00 0.38 0.29 63 1009.7
20260507160503 59 297 2.0 5.0 0.00 0.38 0.29 65 1009.8
20260507160002 59 306 2.0 7.0 0.00 0.38 0.29 66 1009.8
20260507155504 58 77 2.0 5.0 0.00 0.38 0.29 67 1009.9
20260507154503 58 45 2.0 7.0 0.00 0.38 0.29 68 1010.0
20260507153003 57 30 2.0 7.0 0.00 0.38 0.29 70 1010.1
20260507152503 57 15 5.0 12.0 0.00 0.38 0.29 68 1010.2
20260507151502 57 5 5.0 8.0 0.00 0.38 0.29 73 1010.2
20260507151002 57 346 1.0 5.0 0.00 0.38 0.29 74 1010.2
20260507150504 56 16 3.0 6.0 0.00 0.38 0.29 76 1010.4
20260507150003 56 22 3.0 9.0 0.00 0.38 0.29 77 1010.3
20260507145503 55 10 2.0 7.0 0.00 0.38 0.29 77 1010.3
20260507145003 55 10 2.0 5.0 0.00 0.38 0.29 79 1010.3
20260507144502 55 3 1.0 5.0 0.00 0.38 0.29 78 1010.3
20260507144002 55 6 2.0 7.0 0.00 0.38 0.29 80 1010.3
20260507143503 55 24 2.0 7.0 0.00 0.38 0.29 80 1010.3
20260507143003 54 309 1.0 3.0 0.00 0.38 0.29 82 1010.2
20260507142503 54 342 2.0 3.0 0.00 0.38 0.29 81 1010.2
20260507141503 54 359 1.0 3.0 0.00 0.38 0.29 83 1010.3
20260507141002 53 2 2.0 3.0 0.00 0.38 0.29 82 1010.2
20260507140503 53 0 2.0 5.0 0.00 0.38 0.29 82 1010.3
20260507135504 53 344 3.0 5.0 0.00 0.38 0.29 84 1010.3
20260507135003 53 354 2.0 6.0 0.00 0.38 0.29 85 1010.1
20260507134503 53 0 3.0 8.0 0.00 0.38 0.29 88 1010.2
20260507134003 53 317 2.0 5.0 0.00 0.38 0.29 89 1010.3
20260507133504 53 293 1.0 3.0 0.00 0.38 0.29 90 1010.2
20260507133002 52 326 1.0 3.0 0.00 0.38 0.29 90 1010.3
20260507132502 52 355 2.0 3.0 0.00 0.38 0.29 90 1010.4
20260507132002 52 353 2.0 3.0 0.00 0.38 0.29 90 1010.4
20260507131503 52 60 2.0 5.0 0.00 0.38 0.29 90 1010.5
20260507131002 52 345 2.0 3.0 0.00 0.38 0.29 90 1010.5
20260507130502 52 348 1.0 5.0 0.00 0.38 0.29 91 1010.4
20260507130003 52 14 1.0 3.0 0.00 0.38 0.29 91 1010.2
20260507125502 53 346 0.0 3.0 0.00 0.38 0.29 91 1010.3
20260507125002 53 15 1.0 3.0 0.00 0.38 0.29 91 1010.4
20260507124502 53 3 1.0 2.0 0.00 0.38 0.29 91 1010.3
20260507123502 53 16 1.0 3.0 0.00 0.38 0.29 91 1010.2
20260507123002 53 359 1.0 2.0 0.00 0.38 0.29 91 1010.1
20260507122502 53 19 0.0 3.0 0.00 0.38 0.29 91 1010.2
20260507122002 53 14 1.0 3.0 0.00 0.38 0.29 91 1010.2
20260507121504 53 20 0.0 2.0 0.00 0.38 0.29 91 1010.2
20260507121002 53 328 0.0 1.0 0.00 0.38 0.29 91 1010.2
20260507120502 53 350 0.0 1.0 0.00 0.38 0.29 91 1010.0
20260507120002 53 355 0.0 2.0 0.00 0.38 0.29 91 1009.9
20260507115504 53 0 1.0 3.0 0.00 0.38 0.29 91 1009.7
20260507115003 53 349 0.0 0.0 0.00 0.38 0.29 91 1009.9
20260507114502 53 351 0.0 0.0 0.00 0.38 0.29 91 1009.8
20260507114002 53 326 0.0 0.0 0.00 0.38 0.29 91 1009.8
20260507113503 53 20 0.0 0.0 0.00 0.38 0.29 91 1009.6
20260507113003 53 20 0.0 0.0 0.00 0.38 0.29 91 1009.6
20260507112503 53 15 0.0 0.0 0.00 0.38 0.29 91 1009.5
20260507112003 53 28 0.0 0.0 0.00 0.38 0.29 91 1009.4
20260507111506 53 28 0.0 0.0 0.00 0.38 0.29 91 1009.4
20260507111003 53 29 0.0 0.0 0.01 0.38 0.29 91 1009.4
20260507110002 53 29 0.0 0.0 0.01 0.38 0.29 91 1009.6
20260507105503 52 29 0.0 0.0 0.01 0.38 0.29 91 1009.5
20260507105003 52 29 0.0 0.0 0.01 0.38 0.29 91 1009.4
20260507104502 52 29 0.0 0.0 0.01 0.38 0.29 91 1009.5
20260507104003 52 29 0.0 0.0 0.01 0.38 0.29 91 1009.4
20260507103502 52 29 0.0 0.0 0.02 0.38 0.29 91 1009.1
20260507103002 52 29 0.0 0.0 0.02 0.38 0.29 91 1009.1
20260507102502 52 29 0.0 0.0 0.02 0.38 0.29 91 1008.9
20260507102006 52 13 0.0 0.0 0.03 0.38 0.29 91 1008.8
20260507101502 52 16 0.0 0.0 0.03 0.38 0.29 91 1008.9
20260507101003 52 22 0.0 0.0 0.02 0.37 0.28 91 1008.7
20260507100502 52 20 0.0 1.0 0.02 0.37 0.28 91 1008.6
20260507100003 52 20 0.0 1.0 0.02 0.37 0.28 90 1008.6
20260507095502 53 18 0.0 2.0 0.02 0.37 0.28 90 1008.6
20260507095002 53 26 0.0 2.0 0.02 0.37 0.28 90 1008.7
20260507094503 53 9 0.0 2.0 0.02 0.37 0.28 90 1008.6
20260507094003 53 0 1.0 2.0 0.02 0.37 0.28 90 1008.8
20260507093503 53 20 1.0 3.0 0.01 0.36 0.27 90 1008.7
20260507093003 53 12 0.0 2.0 0.01 0.36 0.27 90 1008.7
20260507092503 52 12 0.0 2.0 0.01 0.36 0.27 90 1008.8
20260507092002 52 12 0.0 1.0 0.00 0.35 0.26 90 1008.8
20260507091503 52 5 0.0 1.0 0.01 0.35 0.26 90 1008.9
20260507091003 52 1 0.0 1.0 0.01 0.35 0.26 90 1008.8
20260507090502 52 7 0.0 2.0 0.01 0.35 0.26 90 1008.6
20260507085004 52 347 0.0 2.0 0.03 0.35 0.26 90 1008.4
20260507083004 53 23 1.0 3.0 0.03 0.35 0.26 89 1008.1
20260507082503 53 4 1.0 2.0 0.03 0.35 0.26 89 1008.5
20260507082003 53 21 1.0 2.0 0.03 0.35 0.26 89 1008.5
20260507081003 53 350 0.0 2.0 0.05 0.34 0.25 89 1008.5
20260507080503 53 359 0.0 3.0 0.08 0.34 0.25 89 1008.5
20260507080004 53 4 1.0 2.0 0.09 0.33 0.24 89 1008.6
20260507075503 53 0 0.0 2.0 0.11 0.33 0.24 89 1008.6
20260507075003 53 16 0.0 2.0 0.13 0.32 0.23 89 1008.3
20260507073504 53 7 1.0 2.0 0.16 0.32 0.23 88 1008.5
20260507073004 53 12 1.0 3.0 0.17 0.32 0.23 88 1008.3
20260507072502 53 19 1.0 2.0 0.17 0.32 0.23 88 1008.4
20260507072003 53 22 1.0 2.0 0.18 0.32 0.23 87 1008.3
20260507071003 54 351 1.0 3.0 0.18 0.29 0.20 87 1007.9
20260507070009 54 9 1.0 3.0 0.14 0.24 0.15 87 1008.4
20260507065003 54 347 0.0 2.0 0.09 0.19 0.10 86 1008.2
20260507064004 54 190 1.0 3.0 0.06 0.16 0.07 86 1007.9
20260507063503 55 32 1.0 3.0 0.06 0.16 0.07 86 1007.4
20260507063002 55 8 1.0 5.0 0.05 0.15 0.06 86 1008.2
20260507062502 55 39 1.0 2.0 0.05 0.15 0.06 86 1007.9
20260507062003 55 29 1.0 2.0 0.04 0.14 0.05 86 1007.9
20260507061503 56 353 0.0 2.0 0.03 0.13 0.04 86 1008.0
20260507061002 56 42 1.0 3.0 0.01 0.11 0.02 87 1007.9
20260507060502 56 327 1.0 2.0 0.00 0.10 0.01 87 1008.1
20260507060002 57 359 0.0 2.0 0.00 0.10 0.01 87 1007.5
20260507055503 57 18 1.0 2.0 0.00 0.10 0.01 87 1007.3
20260507055003 57 18 1.0 3.0 0.00 0.10 0.01 87 1007.4
20260507054002 57 357 0.0 3.0 0.00 0.10 0.01 87 1007.4
20260507053502 57 22 0.0 2.0 0.00 0.10 0.01 87 1007.3
20260507053003 57 338 0.0 0.0 0.00 0.10 0.01 87 1007.5
20260507052003 57 315 0.0 0.0 0.01 0.10 0.01 87 1007.5
20260507051503 57 338 0.0 0.0 0.01 0.10 0.01 87 1007.4
20260507051004 58 348 0.0 0.0 0.01 0.10 0.01 87 1007.5
20260507050503 58 36 0.0 0.0 0.01 0.10 0.01 87 1007.3
20260507050003 58 36 0.0 0.0 0.01 0.10 0.01 87 1007.5
20260507045503 58 42 0.0 0.0 0.01 0.10 0.01 87 1007.6
20260507045003 58 306 0.0 0.0 0.01 0.10 0.01 87 1007.8
20260507044503 58 306 0.0 0.0 0.01 0.10 0.01 87 1007.7
20260507042504 59 312 0.0 0.0 0.00 0.09 0.00 87 1008.0
20260507042002 59 315 0.0 0.0 0.00 0.09 0.00 87 1008.0
20260507041502 59 303 0.0 0.0 0.00 0.09 0.00 87 1007.9
20260507040004 60 297 0.0 0.0 0.00 0.09 0.00 87 1007.8
20260507035504 60 297 0.0 0.0 0.00 0.09 0.09 87 1007.6
20260507035004 60 297 0.0 0.0 0.02 0.09 0.09 87 1007.6
20260507034502 61 297 0.0 0.0 0.05 0.09 0.09 87 1007.6
20260507033502 61 305 0.0 2.0 0.09 0.09 0.09 87 1007.7
20260507033003 62 328 0.0 1.0 0.09 0.09 0.09 87 1007.7
20260507032502 62 309 0.0 0.0 0.09 0.09 0.09 87 1007.7
20260507032004 62 328 0.0 1.0 0.09 0.09 0.09 88 1007.7
20260507031503 62 19 1.0 3.0 0.09 0.09 0.09 87 1007.5
20260507031003 62 323 1.0 2.0 0.09 0.09 0.09 87 1007.8
20260507030503 61 214 0.0 2.0 0.09 0.09 0.09 87 1007.6
20260507030004 61 239 1.0 3.0 0.09 0.09 0.09 86 1007.9
20260507025503 61 249 1.0 3.0 0.09 0.09 0.09 85 1007.8
20260507025003 61 222 1.0 3.0 0.07 0.07 0.07 83 1007.7
20260507024002 60 229 1.0 3.0 0.02 0.02 0.02 80 1007.9
20260507023503 60 215 1.0 3.0 0.00 0.00 0.00 79 1007.8
20260507023003 60 217 2.0 3.0 0.00 0.00 0.00 77 1007.9
20260507022502 60 229 1.0 3.0 0.00 0.00 0.00 77 1007.7
20260507022003 60 189 0.0 2.0 0.00 0.00 0.00 77 1007.5
20260507021003 60 191 1.0 3.0 0.00 0.00 0.00 77 1007.7
20260507020502 60 224 1.0 2.0 0.00 0.00 0.00 77 1007.8
20260507020004 60 201 1.0 3.0 0.00 0.00 0.00 77 1007.8
20260507015503 60 204 0.0 2.0 0.00 0.00 0.00 77 1007.8
20260507015004 60 199 0.0 0.0 0.00 0.00 0.00 77 1007.7
20260507014503 60 183 0.0 2.0 0.00 0.00 0.00 77 1007.7
20260507014003 60 188 1.0 3.0 0.00 0.00 0.00 77 1007.7
20260507013504 60 187 1.0 2.0 0.00 0.00 0.00 77 1007.6
20260507013003 60 194 1.0 3.0 0.00 0.00 0.00 76 1007.6
20260507012503 60 204 1.0 2.0 0.00 0.00 0.00 76 1007.7
20260507012004 60 210 1.0 2.0 0.00 0.00 0.00 76 1007.7
20260507011503 60 200 1.0 2.0 0.00 0.00 0.00 76 1007.7
20260507010502 60 171 1.0 2.0 0.00 0.00 0.00 75 1007.6
20260507010004 60 168 0.0 2.0 0.00 0.00 0.00 75 1007.5
20260507005003 60 170 1.0 3.0 0.00 0.00 0.00 75 1007.6
20260507004004 61 201 0.0 3.0 0.00 0.00 0.00 75 1007.6
20260507003504 61 238 1.0 3.0 0.00 0.00 0.00 75 1007.7
20260507002503 61 198 1.0 3.0 0.00 0.00 0.00 75 1007.6
20260507002003 61 200 1.0 2.0 0.00 0.00 0.00 75 1007.6
20260507001003 61 207 0.0 1.0 0.00 0.00 0.00 74 1007.6
20260507000502 61 232 1.0 3.0 0.00 0.00 0.00 74 1007.5
20260507000003 61 209 1.0 3.0 0.00 0.00 0.00 74 1007.5
20260506235504 61 225 2.0 5.0 0.00 0.00 0.00 74 1007.4
20260506235004 61 215 2.0 8.0 0.00 0.00 0.00 74 1007.4
20260506234504 61 231 2.0 5.0 0.00 0.00 0.00 74 1007.5
20260506233503 61 205 1.0 3.0 0.00 0.00 0.00 74 1007.4
20260506233003 61 225 2.0 5.0 0.00 0.00 0.00 74 1007.4
20260506232502 61 222 2.0 5.0 0.00 0.00 0.00 74 1007.4
20260506232002 61 200 1.0 3.0 0.00 0.00 0.00 74 1007.4
20260506231504 61 220 2.0 5.0 0.00 0.00 0.00 74 1007.2
20260506231003 61 235 2.0 5.0 0.00 0.00 0.00 74 1007.2
20260506230502 61 234 1.0 3.0 0.00 0.00 0.00 74 1007.2
20260506225503 61 215 2.0 3.0 0.00 0.00 0.00 74 1007.2
20260506225003 61 208 1.0 5.0 0.00 0.00 0.00 74 1007.2
20260506224503 61 248 1.0 3.0 0.00 0.00 0.00 74 1007.2
20260506224003 62 208 2.0 5.0 0.00 0.00 0.00 73 1007.1
20260506223503 62 202 2.0 3.0 0.00 0.00 0.00 73 1007.0
20260506222503 62 201 2.0 3.0 0.00 0.00 0.00 73 1007.0
20260506222003 62 175 2.0 5.0 0.00 0.00 0.00 73 1007.1
20260506221503 62 201 1.0 3.0 0.00 0.00 0.00 73 1007.1
20260506221004 62 212 3.0 8.0 0.00 0.00 0.00 73 1007.0
20260506220503 63 238 2.0 10.0 0.00 0.00 0.00 73 1006.9
20260506220003 63 222 2.0 10.0 0.00 0.00 0.00 73 1006.8
20260506215503 63 219 3.0 5.0 0.00 0.00 0.00 74 1006.8
20260506215003 63 195 3.0 7.0 0.00 0.00 0.00 74 1006.7
20260506214504 63 227 2.0 9.0 0.00 0.00 0.00 74 1006.7
20260506214004 63 178 2.0 10.0 0.00 0.00 0.00 74 1006.6
20260506213503 63 198 3.0 7.0 0.00 0.00 0.00 75 1006.6
20260506213003 63 203 3.0 9.0 0.00 0.00 0.00 75 1006.5
20260506212503 63 209 3.0 10.0 0.00 0.00 0.00 76 1006.5
20260506212004 63 182 2.0 8.0 0.00 0.00 0.00 77 1006.5
20260506211504 63 200 3.0 7.0 0.00 0.00 0.00 78 1006.4
20260506211004 62 205 2.0 5.0 0.00 0.00 0.00 79 1006.5
20260506210502 62 215 4.0 8.0 0.00 0.00 0.00 79 1006.4
20260506210003 61 219 3.0 5.0 0.00 0.00 0.00 79 1006.4
20260506205503 61 219 1.0 3.0 0.00 0.00 0.00 79 1006.4
20260506205003 60 238 2.0 5.0 0.00 0.00 0.00 78 1006.4
20260506204502 60 223 1.0 5.0 0.00 0.00 0.00 78 1006.6
20260506204003 60 175 2.0 6.0 0.00 0.00 0.00 78 1006.7
20260506203503 60 208 1.0 3.0 0.00 0.00 0.00 78 1006.7
20260506203004 60 238 2.0 5.0 0.00 0.00 0.00 78 1006.9
20260506202504 60 216 3.0 10.0 0.00 0.00 0.00 77 1007.0
20260506202003 60 227 2.0 7.0 0.00 0.00 0.00 78 1007.0
20260506201503 60 223 2.0 7.0 0.00 0.00 0.00 78 1007.0
20260506201003 60 233 2.0 9.0 0.00 0.00 0.00 78 1007.1
20260506200503 60 225 3.0 8.0 0.00 0.00 0.00 78 1007.1
20260506200003 60 226 2.0 6.0 0.00 0.00 0.00 77 1007.2
20260506195503 60 235 3.0 8.0 0.00 0.00 0.00 77 1007.3
20260506195004 60 228 2.0 7.0 0.00 0.00 0.00 77 1007.3
20260506194503 60 221 3.0 7.0 0.00 0.00 0.00 77 1007.2
20260506194003 61 181 2.0 7.0 0.00 0.00 0.00 77 1007.2
20260506193502 61 166 5.0 12.0 0.00 0.00 0.00 77 1007.1
20260506193003 61 198 3.0 10.0 0.00 0.00 0.00 77 1007.0
20260506192503 61 210 3.0 12.0 0.00 0.00 0.00 77 1007.0
20260506192003 61 193 5.0 16.0 0.00 0.00 0.00 77 1007.2
20260506191003 62 211 4.0 8.0 0.00 0.00 0.00 79 1007.1
20260506190503 62 182 4.0 10.0 0.00 0.00 0.00 80 1007.1
20260506190004 62 197 3.0 10.0 0.00 0.00 0.00 81 1007.0
20260506185503 62 222 4.0 8.0 0.00 0.00 0.00 81 1007.2
20260506185003 62 213 3.0 8.0 0.00 0.00 0.00 82 1007.3
20260506184504 62 185 2.0 8.0 0.00 0.00 0.00 82 1007.3